[[{"header":{"parameterUnit":"m.s-1","parameterCategory":1,"la1":30.2991,"la2":30.254,"lo1":-89.0895,"lo2":-89.0444,"dy":0.0017,"dx":0.0017,"nx":28,"ny":28,"refTime":"2025-04-28T21:00:00:Z","depth":0,"parameterNumber":2,"parameterNumberName":"U-component_of_WINDS"},"data":[0,0,0,0,0,0,0,0,0,0,0,0,0,0,0,0,0,0,0,0,0,0,0,0,0,0,0,0,0,0,0,0,0,0,0,0,0,0,0,0,0,0,0,0,0,0,0,0,0,0,0,0,0,0,0,0,0,0,-2.3056,-2.3057,0,-2.3169,-2.3171,-2.3172,-2.3196,-2.3195,-2.3194,-2.3193,-2.331,-2.3314,-2.3318,0,0,0,0,0,0,0,0,0,0,0,0,0,-2.2861,-2.2865,-2.3056,-2.3057,-2.3059,-2.3169,-2.3171,-2.3172,-2.3196,-2.3195,-2.3194,-2.3193,-2.3309,-2.3314,-2.3318,0,0,0,0,0,0,0,0,0,0,0,0,0,-2.2957,-2.2866,-2.3056,-2.3084,-2.3087,-2.3169,-2.3171,-2.3173,-2.3196,-2.3195,-2.3193,-2.3192,-2.3307,-2.3313,-2.3319,-2.3381,0,0,-2.3337,-2.3339,0,0,0,0,0,0,0,0,-2.2952,-2.2965,-2.3078,-2.3082,-2.3086,-2.3167,-2.3145,-2.3243,-2.3196,-2.3155,-2.3193,-2.3192,-2.3264,-2.3273,-2.3297,-2.3386,-2.3391,-2.3337,-2.3341,-2.3343,-2.3345,0,0,0,0,0,0,0,-2.2945,-2.296,-2.3101,-2.308,-2.3085,-2.3091,-2.3103,-2.3164,-2.3215,-2.3158,-2.316,-2.3173,-2.3266,-2.3291,-2.33,-2.3393,-2.3337,-2.3342,-2.3346,-2.3348,-2.3539,-2.3541,0,0,0,0,0,0,-2.2933,-2.2954,-2.3097,-2.3104,-2.3014,-2.3096,-2.3109,-2.3142,-2.3214,-2.3224,-2.3174,-2.3174,-2.3282,-2.3293,-2.3304,-2.3382,-2.3343,-2.3349,-2.3352,-2.3538,-2.354,-2.3541,0,0,0,0,0,0,-2.2929,-2.2946,-2.3093,-2.303,-2.3049,-2.31,-2.3137,-2.3145,-2.3171,-2.3227,-2.3236,-2.3191,-2.3281,-2.3296,-2.3362,-2.3386,-2.3352,-2.3357,-2.3536,-2.3538,-2.3541,-2.3536,0,0,0,0,0,0,-2.2923,-2.2944,-2.2968,-2.303,-2.3052,-2.3147,-2.3139,-2.3148,-2.3181,-2.3182,-2.3245,-2.3254,-2.3282,-2.3353,-2.3368,-2.3393,-2.3362,-2.3534,-2.3537,-2.354,-2.3534,-2.3538,-2.3541,0,0,0,0,0,-2.2916,-2.2962,-2.2969,-2.2986,-2.3083,-2.3149,-2.3162,-2.3192,-2.3183,-2.3207,-2.3243,-2.3252,-2.3381,-2.3359,-2.3376,-2.3404,-2.3533,-2.3536,-2.354,-2.3533,-2.3537,-2.3541,0,0,0,0,0,0,-2.2902,-2.2971,-2.2979,-2.3046,-2.3091,-2.3153,-2.3184,-2.3196,-2.3245,-2.3243,-2.328,-2.3294,-2.3357,-2.3388,-2.3362,-2.3468,-2.3457,-2.3464,-2.3446,-2.345,-2.3454,-2.3445,-2.3366,0,0,0,0,0,-2.2906,-2.2954,-2.3012,-2.3066,-2.3088,-2.3132,-2.3162,-2.3182,-2.323,-2.325,-2.329,-2.3337,-2.3389,-2.3421,-2.3472,-2.354,-2.3554,-2.3567,-2.3571,-2.3573,-2.3578,-2.3617,-2.3624,-2.3553,-2.3553,-2.3553,0,0,-2.2916,-2.296,-2.2987,-2.3064,-2.3101,-2.315,-2.3148,-2.32,-2.3236,-2.3258,-2.3322,-2.3353,-2.3408,-2.3475,-2.3507,-2.3503,-2.3601,-2.3578,-2.3579,-2.3583,-2.3621,-2.3628,-2.3634,-2.3555,-2.3555,-2.3555,0,0,-2.2958,-2.2996,-2.3045,-2.3083,-2.3139,-2.3169,-2.3181,-2.3241,-2.3262,-2.3327,-2.3344,-2.3389,-2.3476,-2.3515,-2.3546,-2.3605,-2.3615,-2.362,-2.3638,-2.3675,-2.368,-2.3685,-2.3706,-2.3713,-2.3626,-2.3626,-2.3626,0,-2.2963,-2.3037,-2.3069,-2.312,-2.3153,-2.3175,-2.3225,-2.326,-2.333,-2.3353,-2.3347,-2.3458,-2.3497,-2.3573,-2.3587,-2.3612,-2.3627,-2.3612,-2.3677,-2.3682,-2.3687,-2.3707,-2.3715,-2.3626,-2.3626,-2.3626,-2.3626,0,-2.304,-2.3091,-2.3124,-2.3191,-2.3228,-2.3279,-2.3319,-2.3353,-2.337,-2.34,-2.3466,-2.3513,-2.3574,-2.3594,-2.3611,-2.3673,-2.3668,-2.3669,-2.3658,-2.3694,-2.3713,-2.3721,-2.3626,-2.3626,-2.3626,-2.3626,0,0,-2.3075,-2.316,-2.3171,-2.3202,-2.3267,-2.3307,-2.3359,-2.3418,-2.3446,-2.3494,-2.3539,-2.3613,-2.3614,-2.3649,-2.3671,-2.3704,-2.3747,-2.3701,-2.3703,-2.3707,-2.3819,-2.3816,-2.3825,-2.3755,-2.3757,-2.3758,-2.3814,0,-2.3125,-2.3217,-2.3248,-2.3325,-2.3372,-2.3394,-2.344,-2.3484,-2.3514,-2.356,-2.3593,-2.3645,-2.3643,-2.3665,-2.3698,-2.3735,-2.377,-2.3731,-2.3797,-2.3798,-2.3781,-2.3835,-2.3833,-2.3883,-2.3822,-2.3823,-2.3824,0,-2.3195,-2.3244,-2.3325,-2.3384,-2.3405,-2.3445,-2.3502,-2.3545,-2.3597,-2.3616,-2.3656,-2.3676,-2.3732,-2.3718,-2.3796,-2.3769,-2.3798,-2.382,-2.3823,-2.3829,-2.3812,-2.3842,-2.39,-2.3907,-2.3836,-2.3835,-2.3834,0,-2.3211,-2.3298,-2.3358,-2.3384,-2.3454,-2.3482,-2.3512,-2.3563,-2.3597,-2.3647,-2.3669,-2.3725,-2.3755,-2.3798,-2.3833,-2.382,-2.3907,-2.3897,-2.3925,-2.3924,-2.3941,-2.394,-2.4004,-2.3962,-2.3961,-2.3961,-2.3961,0,-2.3263,-2.3312,-2.3366,-2.3403,-2.3458,-2.3494,-2.3548,-2.358,-2.3625,-2.3669,-2.3692,-2.3733,-2.3777,-2.3823,-2.3851,-2.3911,-2.3925,-2.3942,-2.3949,-2.394,-2.3937,-2.3958,-2.3955,-2.3963,-2.3963,-2.3963,-2.3962,0,-2.329,-2.3329,-2.3395,-2.3457,-2.3473,-2.3512,-2.3565,-2.3601,-2.3633,-2.3688,-2.3703,-2.3753,-2.3809,-2.3848,-2.3921,-2.3939,-2.4004,-2.401,-2.3986,-2.3989,-2.4015,-2.4011,-2.4094,-2.4107,-2.4056,-2.4057,-2.4057,0,-2.332,-2.3358,-2.3424,-2.3455,-2.3485,-2.3535,-2.3569,-2.3606,-2.3641,-2.3704,-2.3733,-2.3791,-2.3839,-2.3928,-2.3971,-2.4027,-2.4034,-2.4059,-2.4043,-2.4032,-2.4034,-2.4031,-2.4035,-2.4061,-2.4062,-2.4062,-2.4062,0,-2.3369,-2.3386,-2.3434,-2.349,-2.353,-2.3575,-2.3621,-2.3645,-2.3691,-2.3729,-2.3787,-2.3824,-2.3898,-2.3955,-2.4015,-2.4048,-2.4063,-2.4068,-2.4077,-2.4067,-2.4051,-2.406,-2.3992,-2.4065,-2.4065,-2.4065,-2.4064,-2.4064,-2.3398,-2.3433,-2.3484,-2.3538,-2.3576,-2.3618,-2.3656,-2.3692,-2.3741,-2.3803,-2.3823,-2.3883,-2.3935,-2.4017,-2.4051,-2.4098,-2.4097,-2.411,-2.4114,-2.4116,-2.4116,-2.4044,-2.411,-2.411,-2.411,-2.411,-2.411,0,-2.3447,-2.3482,-2.3531,-2.3594,-2.3636,-2.3646,-2.3698,-2.3732,-2.3784,-2.3832,-2.3878,-2.3945,-2.4001,-2.4049,-2.4107,-2.4136,-2.4144,-2.415,-2.4147,-2.4155,-2.4114,-2.41,-2.4142,-2.4142,-2.4142,-2.4142,-2.4142,-2.4142,-2.3478,-2.3537,-2.3561,-2.364,-2.3674,-2.3732,-2.3761,-2.38,-2.3838,-2.3911,-2.3957,-2.3988,-2.4036,-2.4098,-2.415,-2.4162,-2.4182,-2.4186,-2.42,-2.4161,-2.4157,-2.4154,-2.414,-2.419,-2.419,-2.4237,-2.4237,-2.4237]},{"header":{"parameterUnit":"m.s-1","parameterCategory":1,"la1":30.2991,"la2":30.254,"lo1":-89.0895,"lo2":-89.0444,"dy":0.0017,"dx":0.0017,"nx":28,"ny":28,"refTime":"2025-04-28T21:00:00:Z","depth":0,"parameterNumber":3,"parameterNumberName":"V-component_of_WINDS"},"data":[0,0,0,0,0,0,0,0,0,0,0,0,0,0,0,0,0,0,0,0,0,0,0,0,0,0,0,0,0,0,0,0,0,0,0,0,0,0,0,0,0,0,0,0,0,0,0,0,0,0,0,0,0,0,0,0,0,0,1.4296,1.4296,0,1.43,1.43,1.43,1.4269,1.4269,1.4268,1.4267,1.427,1.4271,1.4272,0,0,0,0,0,0,0,0,0,0,0,0,0,1.4263,1.4264,1.4296,1.4296,1.4296,1.43,1.43,1.43,1.427,1.4268,1.4267,1.4266,1.427,1.4271,1.4272,0,0,0,0,0,0,0,0,0,0,0,0,0,1.4273,1.4264,1.4296,1.4281,1.428,1.43,1.43,1.43,1.427,1.4268,1.4267,1.4266,1.427,1.4271,1.4272,1.4306,0,0,1.4276,1.4277,0,0,0,0,0,0,0,0,1.4273,1.4274,1.4283,1.4282,1.4281,1.4283,1.429,1.4302,1.427,1.4274,1.4267,1.4265,1.4276,1.4276,1.428,1.4306,1.4306,1.4277,1.4277,1.4278,1.4278,0,0,0,0,0,0,0,1.4272,1.4274,1.4297,1.4284,1.4282,1.4275,1.4275,1.4292,1.4282,1.4273,1.4271,1.4272,1.4275,1.4279,1.428,1.4307,1.4277,1.4278,1.4279,1.4279,1.4362,1.4364,0,0,0,0,0,0,1.4273,1.4274,1.4297,1.4298,1.4274,1.4277,1.4277,1.4284,1.4281,1.428,1.4273,1.4271,1.4277,1.4278,1.428,1.432,1.4278,1.4279,1.428,1.4361,1.4363,1.4364,0,0,0,0,0,0,1.4273,1.4276,1.4297,1.4285,1.4287,1.4278,1.4287,1.4284,1.4288,1.4281,1.4279,1.4279,1.4276,1.4278,1.43,1.4319,1.428,1.4281,1.4359,1.4362,1.4364,1.44,0,0,0,0,0,0,1.4272,1.4276,1.4288,1.4286,1.4288,1.4317,1.4288,1.4285,1.4291,1.4287,1.4286,1.4285,1.4275,1.4298,1.4302,1.432,1.4282,1.4358,1.436,1.4363,1.4397,1.4403,1.4408,0,0,0,0,0,1.4271,1.4298,1.4289,1.4292,1.4303,1.4318,1.432,1.4308,1.4292,1.4305,1.4301,1.4285,1.4317,1.4301,1.4304,1.4324,1.4356,1.436,1.4363,1.4394,1.4402,1.4408,0,0,0,0,0,0,1.4302,1.4297,1.4287,1.4314,1.4317,1.4313,1.4329,1.4316,1.4324,1.432,1.4306,1.4306,1.4331,1.433,1.4312,1.4357,1.4334,1.4338,1.4357,1.4364,1.4369,1.4369,1.4283,0,0,0,0,0,1.4312,1.4324,1.432,1.4344,1.4346,1.4337,1.4343,1.4334,1.4337,1.4338,1.4335,1.4338,1.4349,1.4356,1.4366,1.4397,1.4397,1.4412,1.4418,1.4423,1.4426,1.4443,1.445,1.4375,1.4375,1.4375,0,0,1.4332,1.4331,1.434,1.435,1.4351,1.4365,1.4338,1.4354,1.4364,1.434,1.4361,1.436,1.4362,1.4389,1.4401,1.4389,1.4447,1.4427,1.443,1.4431,1.4447,1.4454,1.4461,1.4377,1.4377,1.4376,0,0,1.4377,1.4377,1.4398,1.44,1.4403,1.4397,1.4402,1.4401,1.4399,1.4421,1.4403,1.4416,1.4434,1.4437,1.4441,1.4489,1.4475,1.4493,1.4522,1.4539,1.4545,1.455,1.4568,1.4574,1.4497,1.4497,1.4497,0,1.4401,1.4421,1.441,1.4427,1.4432,1.4412,1.4434,1.4436,1.4442,1.4446,1.4433,1.4457,1.4458,1.4485,1.4498,1.4501,1.4507,1.4492,1.4545,1.455,1.4555,1.4571,1.4578,1.4499,1.4499,1.4498,1.4498,0,1.4452,1.4467,1.4483,1.449,1.4497,1.4516,1.4508,1.4517,1.4508,1.4504,1.4527,1.4527,1.4536,1.4543,1.4534,1.457,1.4562,1.4548,1.4524,1.4564,1.458,1.4586,1.4502,1.4501,1.45,1.45,0,0,1.4514,1.4516,1.4522,1.4526,1.4528,1.4539,1.4558,1.4568,1.4576,1.4582,1.4597,1.4615,1.4602,1.4606,1.4598,1.4613,1.4652,1.4596,1.4596,1.4606,1.4692,1.4703,1.471,1.4643,1.4644,1.4645,1.4692,0,1.4558,1.459,1.4581,1.4613,1.4627,1.4609,1.4626,1.463,1.4627,1.4638,1.4636,1.4648,1.463,1.4632,1.4647,1.4644,1.4669,1.464,1.4657,1.4658,1.4656,1.4718,1.4729,1.4774,1.4698,1.4699,1.4699,0,1.4612,1.4621,1.4654,1.4656,1.4662,1.4677,1.4686,1.4697,1.4702,1.4699,1.4705,1.4694,1.4713,1.469,1.4717,1.4698,1.4705,1.4705,1.4706,1.4706,1.4681,1.472,1.4787,1.4794,1.4709,1.4708,1.4707,0,1.4654,1.4674,1.4697,1.47,1.4703,1.4714,1.4716,1.4719,1.4726,1.4735,1.474,1.475,1.4756,1.4764,1.4757,1.4741,1.4785,1.4761,1.4783,1.4783,1.4792,1.4792,1.4861,1.4797,1.4797,1.4797,1.4797,0,1.4703,1.4724,1.4716,1.473,1.4754,1.4744,1.4768,1.4768,1.4771,1.4785,1.4771,1.4785,1.4774,1.4787,1.4782,1.4805,1.4807,1.4806,1.4804,1.4807,1.4807,1.481,1.4807,1.4799,1.4799,1.4798,1.4798,0,1.4753,1.4749,1.4773,1.4774,1.4775,1.4793,1.4794,1.4807,1.4805,1.4823,1.4826,1.4822,1.4837,1.483,1.4846,1.4842,1.4872,1.4866,1.487,1.4869,1.4891,1.4889,1.4965,1.4974,1.4905,1.4905,1.4906,0,1.4785,1.4801,1.4805,1.4813,1.4816,1.483,1.4838,1.483,1.4838,1.4846,1.4859,1.4872,1.4882,1.4907,1.4905,1.4917,1.4911,1.4937,1.4913,1.4916,1.4912,1.4911,1.4912,1.4941,1.4942,1.4943,1.4943,0,1.4841,1.4838,1.485,1.4862,1.4871,1.488,1.4887,1.4895,1.4888,1.4898,1.4913,1.4922,1.4938,1.4952,1.4963,1.4964,1.4953,1.4951,1.4957,1.496,1.4962,1.4961,1.4883,1.4949,1.4949,1.4948,1.4948,1.4948,1.4882,1.4896,1.4902,1.4916,1.4921,1.4929,1.4942,1.4941,1.4954,1.4967,1.4961,1.4979,1.4985,1.4998,1.5002,1.5016,1.5006,1.5014,1.5016,1.5018,1.5021,1.496,1.5018,1.5018,1.5018,1.5018,1.5018,0,1.4938,1.4941,1.4954,1.4965,1.4977,1.4966,1.4974,1.4984,1.5,1.5007,1.5018,1.5036,1.505,1.505,1.5063,1.5074,1.5069,1.5078,1.5077,1.5078,1.503,1.5023,1.5082,1.5082,1.5082,1.5082,1.5082,1.5082,1.4968,1.4991,1.499,1.5016,1.5019,1.5037,1.5043,1.505,1.5055,1.5076,1.5088,1.5088,1.5093,1.5106,1.5119,1.5118,1.5124,1.5134,1.5132,1.5087,1.5081,1.5075,1.5069,1.5136,1.5136,1.5179,1.5179,1.518]}]]